Tracking 28799 objects as of 18-Apr-2024
HD Live streaming from Space Station
objects crossing your sky now

COSMOS 1823 DEB

Track COSMOS 1823 DEB now!
10-day predictions


NORAD ID: 39823
Int'l Code: 1987-020EX
Perigee: 1,457.7 km
Apogee: 1,528.4 km
Inclination: 73.7 °
Period: 115.7 minutes
Semi major axis: 7864 km
RCS: 0.0104 m2 (small)
Launch date: February 20, 1987
Source: Commonwealth of Independent States (former USSR) (CIS)
Launch site: PLESETSK MISSILE AND SPACE COMPLEX (PKMTR)

Note: This is SATELLITE DEBRIS
Your satellite tracking list
Your tracking list is empty




NASA's NSSDC Master Catalog

Two Line Element Set (TLE):
1 39823U 87020EX  24108.02690753  .00000509  00000-0  36821-2 0  9995
2 39823  73.7077 118.3001 0044916 102.0501 288.8490 12.44900112928748
Source of the keplerian elements: AFSPC